Theta_e
284 285 285 284 285 286 284 286 282 286 284 285 288 289 289 288 291 291 292 292 293 292 290 290 290 290 290 290 292 292 292 291 290 288 288 287 285 284 283 283 282 282 281 281
280 283 284 283 285 287 286 286 286 286 284 286 287 290 289 290 291 291 292 293 293 291 291 292 292 290 290 288 288 291 290 288 287 286 284 284 283 283 282 282 281 281 281 280
275 282 284 280 284 286 287 286 288 284 288 287 287 288 290 291 291 292 293 293 292 292 292 293 291 291 289 288 286 285 286 285 284 284 283 283 282 282 281 280 280 280 280 280
276 281 276 283 287 290 288 290 292 290 287 289 289 291 291 292 293 293 293 293 294 294 294 293 291 290 289 287 285 284 284 283 282 283 282 281 280 280 280 279 279 279 279 279
279 273 279 283 284 284 283 286 289 288 289 290 287 288 289 293 294 295 295 296 296 296 295 293 291 290 288 285 284 284 283 283 282 282 281 280 279 279 279 279 277 277 278 275
279 269 270 280 287 288 288 281 290 290 290 290 288 285 290 295 294 295 296 296 296 295 294 292 291 290 287 285 284 284 284 283 282 282 281 280 279 279 278 277 277 277 277 274
280 272 275 283 285 287 279 281 285 289 291 289 288 292 291 291 291 293 294 294 294 295 294 293 291 288 287 286 285 286 283 281 280 279 279 279 278 277 276 276 274 272 274 274
274 269 275 285 284 284 287 286 287 287 288 288 289 289 289 290 290 291 291 292 293 293 293 291 289 288 287 286 286 282 281 280 279 278 278 278 276 274 274 273 273 273 273 273
284 283 287 285 285 286 287 288 288 289 289 289 287 287 287 289 289 289 289 290 290 290 287 286 287 289 287 286 281 281 280 279 277 276 276 276 274 273 273 274 274 273 274 273
283 282 284 285 285 285 287 287 287 288 287 288 288 288 288 288 287 287 284 282 281 283 283 282 284 286 287 281 281 281 279 276 276 275 273 273 275 275 274 274 274 274 274 274
277 280 281 283 284 286 286 287 287 287 286 287 287 287 287 286 284 284 281 280 280 281 280 279 280 279 279 280 281 279 277 275 275 274 274 273 274 274 274 274 275 274 274 273
280 285 285 285 285 285 285 286 287 287 287 286 285 285 285 282 281 280 280 279 278 277 278 276 277 277 277 279 281 278 275 275 274 273 273 273 272 271 276 276 277 278 277 274
286 287 287 286 286 285 286 285 285 285 284 284 283 283 280 279 278 278 276 276 276 276 275 275 275 275 276 279 279 278 276 274 274 273 273 272 272 271 269 271 273 275 275 274
284 286 286 284 283 283 285 283 280 278 278 278 278 276 276 276 276 276 275 275 274 274 273 274 273 271 272 275 277 276 275 275 274 274 273 272 271 272 272 270 268 267 270 271
281 281 282 282 281 280 279 279 279 278 276 276 274 274 274 276 277 276 273 272 272 271 270 270 271 269 271 276 276 275 274 274 273 272 272 271 270 268 268 267 267 266 264 267
277 277 278 277 278 277 276 277 277 276 276 275 275 274 272 270 269 268 268 269 271 270 269 270 271 269 271 274 274 273 273 272 271 270 268 268 267 266 266 265 265 264 264 264
274 274 274 274 274 273 271 271 271 272 272 270 270 269 267 266 265 266 265 264 266 266 266 268 266 266 267 269 271 271 270 269 269 268 267 267 266 265 265 264 264 263 263 264
265 267 267 266 267 268 267 265 265 265 266 266 266 265 265 265 264 266 261 260 262 262 261 260 262 263 263 265 266 267 266 266 266 265 265 264 264 264 264 264 263 263 262 261
259 259 260 261 259 261 260 258 258 260 261 262 263 263 260 260 260 259 257 259 260 261 261 258 268 262 262 264 265 265 265 264 264 263 263 263 262 262 262 262 262 261 261 260
255 256 256 257 256 254 255 254 255 257 258 259 261 263 263 260 256 256 256 257 256 257 256 257 258 259 260 265 266 264 264 264 263 261 261 261 262 261 261 261 260 260 258 256
252 253 254 254 254 252 251 250 251 254 254 255 256 255 253 254 254 253 256 258 257 252 254 257 256 257 258 263 263 263 263 263 263 262 262 262 261 261 260 259 258 257 257 256
251 251 251 251 250 249 249 249 249 250 251 252 252 253 254 254 254 253 250 254 254 256 254 254 254 257 257 261 257 258 259 261 262 262 261 261 260 260 259 258 258 257 256 256
249 249 249 249 249 248 247 247 248 247 249 248 248 249 250 250 249 253 256 253 250 253 251 252 257 259 261 254 254 257 258 259 258 259 260 259 259 259 259 258 258 258 257 258
249 250 249 250 248 250 250 250 247 245 243 244 244 244 246 251 251 247 249 252 253 252 251 252 257 263 255 252 254 256 257 258 258 257 257 258 257 258 259 259 259 258 257 257
246 246 246 248 250 249 248 248 249 249 249 249 248 248 246 247 248 251 248 250 257 252 252 257 263 260 252 253 254 256 259 260 260 260 259 259 259 259 258 258 257 257 257 257
245 246 245 242 245 246 246 246 246 246 247 248 248 247 248 249 250 250 251 253 252 254 253 256 257 256 257 256 257 257 259 259 259 259 259 258 258 258 258 257 257 257 257 257
249 250 248 247 245 245 244 245 245 247 246 242 245 246 246 248 249 251 252 252 252 253 253 254 256 258 256 256 256 257 257 258 259 258 258 258 258 258 258 257 257 257 256 255
Wind_Speed
4 3 4 8 15 20 19 22 9 18 14 6 11 5 7 4 5 6 9 10 10 8 5 5 7 6 7 6 7 7 9 9 9 8 9 10 11 10 8 8 6 7 7 6
2 3 4 6 10 21 21 18 18 16 19 5 4 8 6 6 7 10 11 11 9 8 9 10 10 10 8 7 7 8 8 9 9 10 9 9 9 9 8 8 7 7 6 6
6 3 7 5 19 19 15 10 18 21 18 2 7 9 9 8 11 13 11 11 11 12 14 13 12 11 11 10 7 7 9 9 10 10 10 9 9 9 8 8 7 6 6 6
3 3 7 10 8 23 20 20 20 18 6 7 11 11 7 5 9 12 10 12 14 14 13 10 8 9 9 10 10 9 9 10 9 10 10 8 8 8 7 6 6 5 5 4
6 5 7 10 7 9 11 22 15 15 9 13 4 3 9 9 14 14 11 14 13 11 11 11 13 13 12 10 10 10 11 11 10 11 12 10 9 8 5 6 4 3 4 5
4 7 11 4 9 9 8 15 10 14 14 14 7 5 15 13 8 13 13 9 9 10 9 13 13 14 14 13 13 14 13 12 11 10 10 10 9 8 4 4 5 4 5 4
6 5 9 9 2 4 8 5 1 7 11 7 9 9 2 4 0 2 5 7 8 11 13 13 14 15 16 15 18 13 11 10 10 9 10 9 9 4 6 7 6 5 5 3
3 1 13 8 4 11 4 1 1 2 2 5 3 6 4 5 6 2 3 6 9 10 10 10 13 15 15 17 11 11 12 12 11 10 7 8 10 6 7 7 7 5 5 3
13 8 5 4 2 3 2 2 3 3 4 4 2 2 5 4 6 6 5 3 2 5 7 7 12 15 15 11 13 14 14 12 11 9 8 8 9 9 6 5 5 5 4 3
5 4 5 3 2 1 1 4 1 3 3 4 4 5 5 5 5 6 6 4 0 6 6 5 6 6 6 11 13 14 14 12 11 11 9 6 5 5 6 5 4 4 4 3
3 5 2 2 3 4 2 3 3 2 2 4 5 5 4 4 4 3 1 3 0 3 4 4 5 5 8 11 14 13 12 11 10 9 9 8 5 4 4 3 3 4 3 3
5 4 4 2 4 3 2 4 7 7 5 6 5 5 5 3 3 3 4 3 2 2 5 4 6 7 8 11 14 14 13 10 9 9 7 6 7 5 6 6 6 5 8 5
3 3 5 7 6 4 6 5 5 5 4 4 4 4 2 2 3 2 1 0 1 2 2 3 4 5 6 9 11 13 14 12 10 10 8 8 7 7 7 3 4 5 4 4
6 2 6 7 3 5 5 5 5 4 4 4 4 3 2 2 2 2 3 2 1 2 3 4 5 3 2 6 10 11 11 14 11 9 8 7 6 6 5 6 5 4 3 3
8 8 4 6 7 6 5 4 7 6 4 4 3 3 4 5 5 5 4 3 4 4 3 3 5 4 1 7 10 12 10 8 7 7 6 7 6 5 5 4 4 3 2 2
4 7 9 9 8 7 4 7 7 6 6 5 5 6 5 4 4 5 5 4 3 2 3 3 2 3 1 5 8 7 6 11 9 7 7 6 5 5 4 4 4 3 3 3
5 7 8 7 8 7 8 5 5 4 5 7 8 6 5 4 3 4 4 5 4 3 1 2 4 5 5 5 3 4 5 6 8 5 6 6 5 5 5 4 4 4 3 2
9 8 7 5 5 6 6 9 8 8 7 7 5 5 6 6 4 6 4 3 3 5 6 3 4 5 6 6 6 5 5 4 4 4 5 5 4 4 5 5 5 5 3 2
11 10 10 11 9 6 6 7 8 7 9 8 6 6 3 3 3 3 2 5 5 4 3 1 6 6 6 5 6 5 4 5 4 3 3 5 4 3 4 4 4 4 3 4
11 10 10 7 9 9 7 7 7 7 8 9 7 7 7 7 6 4 3 2 2 3 3 1 4 3 4 4 6 4 5 5 6 4 4 4 4 4 4 5 4 4 4 4
9 9 8 8 6 5 6 5 5 9 9 8 8 7 5 6 5 4 4 3 5 5 0 4 3 3 2 3 4 3 4 5 5 5 5 4 4 4 4 4 4 4 4 3
7 8 8 8 6 4 7 7 6 6 7 8 7 7 6 7 7 5 1 1 5 5 2 2 2 3 3 6 3 3 3 1 2 3 3 3 4 4 4 4 5 4 4 4
6 6 6 6 6 5 5 5 6 5 6 6 7 7 5 3 2 4 4 5 3 4 3 2 1 3 5 3 3 3 3 3 3 3 3 3 3 3 4 4 4 4 4 4
5 6 6 6 5 5 9 8 5 3 1 3 2 2 3 5 4 2 3 6 6 5 2 2 1 4 4 2 2 1 2 3 3 2 2 4 3 4 4 4 4 4 4 5
4 4 3 6 6 5 6 6 6 6 7 6 6 5 4 1 2 4 4 4 5 4 4 4 1 5 3 2 1 0 1 1 2 2 2 2 3 3 4 4 4 4 4 5
5 4 4 3 2 4 5 4 3 4 4 5 4 4 5 4 3 3 4 4 4 4 3 3 3 3 2 1 1 1 1 2 2 2 3 3 3 4 4 4 4 5 5 5
2 3 3 3 2 3 3 3 3 4 3 1 3 3 4 4 4 3 4 3 3 3 3 3 3 3 2 2 2 2 1 2 4 3 3 3 4 4 4 4 5 5 5 6
Wind_Direction
218 67 136 167 182 197 209 222 213 250 251 250 272 289 264 223 184 196 199 197 196 188 176 173 174 163 153 155 151 150 150 146 140 127 129 128 124 122 120 120 128 125 121 110
47 37 221 198 196 199 215 222 239 244 257 231 263 314 181 219 206 207 210 209 197 174 178 190 185 180 163 156 156 161 152 139 135 135 129 129 125 123 124 124 128 123 121 129
228 116 86 304 216 217 220 207 226 235 242 255 264 259 264 268 198 210 212 200 191 187 196 194 187 170 171 160 145 144 143 143 140 140 137 136 132 133 136 131 124 127 128 129
160 89 213 239 214 211 222 240 229 248 242 225 237 258 265 219 212 229 206 196 199 198 199 184 163 160 147 149 157 147 145 150 148 142 138 137 138 136 131 132 133 129 120 123
142 202 299 278 220 164 178 246 225 233 227 236 225 338 283 214 217 223 205 210 211 193 184 167 167 163 155 156 155 157 165 163 160 154 151 151 145 136 125 122 116 122 132 126
172 167 213 239 205 167 127 261 241 204 229 241 137 217 260 248 201 216 208 204 186 168 161 167 173 162 161 170 170 181 175 170 162 154 148 147 141 138 122 122 127 122 116 110
177 222 284 245 202 152 164 238 85 199 220 193 193 219 289 345 174 229 193 175 150 166 179 180 166 166 179 176 191 178 153 146 145 145 147 144 132 117 129 122 113 111 114 107
109 145 254 177 50 175 232 44 4 10 188 192 255 332 357 354 10 22 175 173 172 172 184 172 167 175 185 193 169 145 146 145 147 145 143 136 128 119 126 131 127 130 132 127
190 208 224 175 330 93 127 95 29 29 9 1 228 360 336 347 354 351 335 259 188 177 157 165 175 185 186 177 149 149 147 149 143 135 133 137 138 139 130 137 142 153 154 139
99 253 217 138 124 140 152 108 102 74 12 2 20 8 347 349 350 345 348 330 120 135 157 170 180 189 177 145 149 151 149 146 142 138 129 124 127 139 136 149 146 148 157 169
275 289 317 216 230 161 132 96 85 88 78 33 354 359 2 346 337 10 315 327 161 159 152 158 134 123 132 147 151 150 145 143 140 136 142 135 114 127 129 94 134 152 161 127
215 176 122 80 90 106 116 34 38 34 47 38 37 15 2 355 2 352 339 338 67 117 134 158 149 144 145 155 158 150 148 150 150 144 142 139 135 118 102 125 146 140 122 154
143 117 82 104 79 43 85 54 39 53 41 16 21 354 357 1 357 312 304 274 194 198 112 118 112 125 144 155 152 159 155 151 146 147 150 150 152 151 152 117 87 110 159 211
38 116 76 31 75 44 76 59 60 62 40 17 355 360 341 319 326 3 338 297 88 112 124 129 123 128 137 145 149 149 149 154 154 153 153 152 157 162 152 165 162 162 189 218
33 33 94 110 70 42 23 36 59 42 357 19 352 348 6 0 352 348 3 23 70 86 78 106 135 152 146 154 149 142 139 144 141 142 144 145 142 145 154 154 152 148 170 215
5 48 45 54 55 53 53 37 63 20 8 356 4 14 1 18 20 21 19 17 30 263 185 148 133 132 110 137 137 126 128 136 137 140 138 142 151 149 151 145 161 173 191 199
36 26 13 40 28 26 45 30 43 24 350 12 350 345 8 17 31 16 358 353 1 36 68 106 129 91 43 32 69 114 122 123 135 134 148 149 147 160 150 151 169 179 207 194
15 29 22 32 10 18 20 14 8 6 17 327 337 3 10 8 337 327 302 336 46 45 27 25 100 93 96 89 82 73 73 98 118 129 130 138 146 144 155 168 179 183 174 207
12 18 14 28 13 16 21 6 357 339 350 345 3 6 341 14 345 335 10 23 18 14 309 71 139 120 116 117 123 121 119 127 124 114 123 133 146 154 176 185 185 174 173 204
8 12 20 20 28 30 11 360 341 356 356 354 354 13 21 20 2 20 17 33 237 247 291 352 71 89 113 136 136 123 137 152 152 149 150 154 162 180 197 202 197 195 194 201
5 358 6 10 11 12 15 346 356 20 353 12 23 9 349 338 7 350 34 26 324 332 327 112 105 89 47 91 142 143 144 148 157 169 180 186 173 179 199 209 209 205 214 216
350 355 353 353 1 1 12 359 9 6 17 16 13 13 11 11 1 350 271 357 320 341 9 35 77 117 128 117 104 100 88 128 183 171 177 176 188 190 206 207 218 224 217 211
342 337 332 350 354 331 324 6 6 7 17 13 11 4 1 305 295 7 354 349 337 341 7 5 104 130 137 85 101 114 128 154 157 167 184 188 201 208 217 218 220 220 219 232
343 347 338 331 337 9 17 348 342 349 340 313 337 315 352 354 343 342 298 314 337 10 349 281 248 127 100 107 115 132 175 191 195 190 184 192 189 196 214 223 230 225 236 245
336 309 324 6 15 3 330 331 329 1 1 359 357 352 350 332 164 313 324 330 355 21 351 330 356 114 94 79 76 334 266 231 215 199 203 209 220 225 225 228 235 234 243 244
344 335 322 295 291 321 322 339 348 333 354 354 330 347 338 338 337 348 351 353 1 9 10 1 21 51 55 57 316 297 289 275 256 252 243 237 236 235 235 238 236 241 242 247
318 355 346 346 313 316 315 300 331 323 330 315 280 303 319 328 332 342 346 346 348 353 1 351 3 2 353 332 316 301 280 271 270 261 254 252 248 246 243 245 251 252 252 249